COSMOS 2251 DEB, 35650

Orbit data source: Space-Track

COSMOS 2251 DEB, 35650 is space debris in LEO originally from a launch on Wed, 16 Jun 1993 UTC launched from the Plesetsk Missile And Space Complex (PKMTR). The debris from Iridium 33, an American commercial communications satellite, has been tracked extensively since its accidental collision with the defunct Russian satellite Cosmos 2251 in 2009. This event, occurring at high speed in low Earth orbit (LEO), generated thousands of pieces of space debris, significantly increasing the risk of further collisions. The Iridium 33 debris cloud has impacted space traffic management and orbital debris mitigation strategies, making it a subject of ongoing study in space situational awareness.

Loading next visibility...
Identifier
35650, 1993-036ANR
Orbit
LEO
Country
Flag of CISCIS
Related business
Manufacturer
Unknown
Mission
Spacecraft
Bus & Motor
Unknown
Mass
Unknown
Launch date (UTC)
1993-06-16 (33 years ago)
Launch vehicle
Unknown
Launch site
Plesetsk Missile And Space Complex (PKMTR)
Object type
Payload
Rocket body
Debris
Shape & HBR
Unknown shape, 0.1 m
Radar Cross Section
Small (<0.1 m²)

Expand to show TLE details & history
Last TLE update: 2 days ago

TLE from 2 days ago
0 COSMOS 2251 DEB
1 35650U 93036ANR 26205.93936433  .00014831  00000-0  15223-2 0  9997
2 35650  74.0440 292.3513 0016066 302.3910 178.1757 14.90318823909678
Epoch: 2026-07-24T22:32Z
TLE epoch observation values (Epoch: 2026-07-24T22:32:41.078Z)
Latitude
55.98561°
Longitude
166.60113°
Altitude
617.131 km
Speed
7.55 km/s
True Right ascension
05h 49m 43s
True Declination
55° 49' 22"
Sunlit
Object was in daylight at epoch
Visualization orbit readout
Latitude
Unknown
Longitude
Unknown
Altitude
Unknown
Speed
Unknown
Apparent Right ascension
Unknown
Apparent Declination
Unknown
Sunlit
N/A
Visualization observer readout
Local Sidereal Time
21:52:15
Azimuth
Unknown
Elevation
Unknown
Doppler factor
Unknown
Orbital elements
Apogee altitude
605.707 km
Perigee altitude
583.302 km
Semi-major axis
6,972.641 km
Eccentricity
0.00161
Inclination
74.044°
RAAN
292.3513°
Arg. of periapsis
302.391°
True anomaly
178.18155°
Mean anomaly
178.1757°
Eccentric anomaly
178.17863°
Mean motion
3.72775 °/min
Orbital period
96.57 mins
BSTAR
0.0015223
Loading maneuver chart data...
Computing Atmospheric mass density...

Documentation

Showing up to 5 results
|